| time (UTC) | temp C | wind direction | speed KPH | gust KPH | rain 1hr cm | rain 24hr cm | rain mn cm | humidity % | barometer mb |
| 20260505153008 | 12 | 134 | 0.0 | 3.2 | 0.00 | 0.00 | 0.00 | 83 | 1017.8 |
| 20260505152504 | 12 | 125 | 0.0 | 3.2 | 0.00 | 0.00 | 0.00 | 83 | 1017.8 |
| 20260505152007 | 12 | 128 | 0.0 | 3.2 | 0.00 | 0.00 | 0.00 | 83 | 1017.7 |
| 20260505151514 | 12 | 101 | 0.0 | 3.2 | 0.00 | 0.00 | 0.00 | 84 | 1017.7 |
| 20260505151008 | 12 | 165 | 1.6 | 3.2 | 0.00 | 0.00 | 0.00 | 83 | 1017.7 |
| 20260505150506 | 12 | 178 | 1.6 | 3.2 | 0.00 | 0.00 | 0.00 | 83 | 1017.6 |
| 20260505140506 | 11 | 115 | 0.0 | 3.2 | 0.00 | 0.00 | 0.00 | 84 | 1017.0 |
| 20260505125007 | 11 | 127 | 0.0 | 4.8 | 0.00 | 0.00 | 0.00 | 84 | 1016.6 |
| 20260505124519 | 11 | 113 | 1.6 | 4.8 | 0.00 | 0.00 | 0.00 | 84 | 1016.6 |
| 20260505124007 | 11 | 147 | 0.0 | 3.2 | 0.00 | 0.00 | 0.00 | 84 | 1016.6 |
| 20260505123506 | 11 | 121 | 0.0 | 3.2 | 0.00 | 0.00 | 0.00 | 84 | 1016.6 |
| 20260505123020 | 11 | 145 | 0.0 | 3.2 | 0.00 | 0.00 | 0.00 | 84 | 1016.6 |
| 20260505122506 | 11 | 195 | 0.0 | 3.2 | 0.00 | 0.00 | 0.00 | 84 | 1016.6 |
| 20260505122007 | 11 | 150 | 1.6 | 4.8 | 0.00 | 0.00 | 0.00 | 84 | 1016.5 |
| 20260505121520 | 11 | 173 | 0.0 | 4.8 | 0.00 | 0.00 | 0.00 | 84 | 1016.6 |
| 20260505121007 | 11 | 175 | 1.6 | 3.2 | 0.00 | 0.00 | 0.00 | 84 | 1016.6 |
| 20260505120506 | 11 | 180 | 0.0 | 3.2 | 0.00 | 0.00 | 0.00 | 84 | 1016.6 |
| 20260505120015 | 11 | 186 | 0.0 | 3.2 | 0.00 | 0.00 | 0.00 | 84 | 1016.5 |
| 20260505115502 | 11 | 184 | 0.0 | 3.2 | 0.00 | 0.00 | 0.00 | 84 | 1016.5 |
| 20260505115004 | 11 | 180 | 1.6 | 4.8 | 0.00 | 0.00 | 0.00 | 84 | 1016.5 |
| 20260505114514 | 11 | 192 | 1.6 | 3.2 | 0.00 | 0.00 | 0.00 | 84 | 1016.5 |
| 20260505114009 | 11 | 134 | 0.0 | 3.2 | 0.00 | 0.00 | 0.00 | 84 | 1016.5 |
| 20260505113507 | 11 | 169 | 0.0 | 3.2 | 0.00 | 0.00 | 0.00 | 84 | 1016.6 |
| 20260505113020 | 11 | 104 | 1.6 | 3.2 | 0.00 | 0.00 | 0.00 | 84 | 1016.6 |
| 20260505112506 | 11 | 96 | 1.6 | 4.8 | 0.00 | 0.00 | 0.00 | 84 | 1016.6 |
| 20260505112006 | 11 | 142 | 0.0 | 4.8 | 0.00 | 0.00 | 0.00 | 84 | 1016.6 |
| 20260505111521 | 11 | 179 | 1.6 | 4.8 | 0.00 | 0.00 | 0.00 | 84 | 1016.5 |
| 20260505111010 | 11 | 106 | 1.6 | 3.2 | 0.00 | 0.00 | 0.00 | 84 | 1016.5 |
| 20260505110507 | 11 | 105 | 0.0 | 3.2 | 0.00 | 0.00 | 0.00 | 84 | 1016.5 |
| 20260505102009 | 11 | 125 | 0.0 | 3.2 | 0.00 | 0.00 | 0.00 | 84 | 1016.1 |
| 20260505101531 | 11 | 122 | 0.0 | 4.8 | 0.00 | 0.00 | 0.00 | 84 | 1016.0 |
| 20260505101007 | 11 | 121 | 1.6 | 4.8 | 0.00 | 0.00 | 0.00 | 84 | 1016.0 |
| 20260505100508 | 11 | 167 | 1.6 | 4.8 | 0.00 | 0.00 | 0.00 | 84 | 1016.0 |
| 20260505100023 | 11 | 95 | 3.2 | 4.8 | 0.00 | 0.00 | 0.00 | 83 | 1016.1 |
| 20260505095508 | 11 | 134 | 1.6 | 3.2 | 0.00 | 0.00 | 0.00 | 83 | 1016.0 |
| 20260505095008 | 12 | 95 | 0.0 | 3.2 | 0.00 | 0.00 | 0.00 | 82 | 1016.0 |
| 20260505094521 | 12 | 95 | 0.0 | 3.2 | 0.00 | 0.00 | 0.00 | 83 | 1016.0 |
| 20260505094007 | 11 | 94 | 0.0 | 3.2 | 0.00 | 0.00 | 0.00 | 83 | 1015.9 |
| 20260505093506 | 12 | 115 | 1.6 | 3.2 | 0.00 | 0.00 | 0.00 | 83 | 1015.8 |
| 20260505093023 | 12 | 84 | 1.6 | 4.8 | 0.00 | 0.00 | 0.00 | 83 | 1015.7 |
| 20260505092506 | 12 | 93 | 0.0 | 4.8 | 0.00 | 0.00 | 0.00 | 83 | 1015.7 |
| 20260505092009 | 12 | 121 | 0.0 | 3.2 | 0.00 | 0.00 | 0.00 | 82 | 1015.6 |
| 20260505091524 | 12 | 117 | 0.0 | 3.2 | 0.00 | 0.00 | 0.00 | 82 | 1015.6 |
| 20260505091009 | 12 | 143 | 1.6 | 3.2 | 0.00 | 0.00 | 0.00 | 82 | 1015.6 |
| 20260505090507 | 12 | 141 | 0.0 | 4.8 | 0.00 | 0.00 | 0.00 | 82 | 1015.6 |
| 20260505090026 | 12 | 80 | 1.6 | 4.8 | 0.00 | 0.00 | 0.00 | 81 | 1015.6 |
| 20260505085511 | 12 | 114 | 0.0 | 3.2 | 0.00 | 0.00 | 0.00 | 81 | 1015.4 |
| 20260505085009 | 12 | 96 | 0.0 | 6.4 | 0.00 | 0.00 | 0.00 | 80 | 1015.4 |
| 20260505084524 | 12 | 153 | 1.6 | 9.7 | 0.00 | 0.00 | 0.00 | 80 | 1015.4 |
| 20260505084008 | 12 | 139 | 1.6 | 8.0 | 0.00 | 0.00 | 0.00 | 80 | 1015.4 |
| 20260505083510 | 12 | 138 | 1.6 | 3.2 | 0.00 | 0.00 | 0.00 | 81 | 1015.4 |
| 20260505083026 | 12 | 127 | 0.0 | 3.2 | 0.00 | 0.00 | 0.00 | 81 | 1015.5 |
| 20260505082507 | 12 | 138 | 1.6 | 3.2 | 0.00 | 0.00 | 0.00 | 81 | 1015.5 |
| 20260505082008 | 12 | 107 | 0.0 | 3.2 | 0.00 | 0.00 | 0.00 | 81 | 1015.5 |
| 20260505081520 | 12 | 105 | 0.0 | 4.8 | 0.00 | 0.00 | 0.00 | 80 | 1015.4 |
| 20260505081008 | 12 | 141 | 1.6 | 4.8 | 0.00 | 0.00 | 0.00 | 80 | 1015.3 |
| 20260505080509 | 13 | 143 | 1.6 | 4.8 | 0.00 | 0.00 | 0.00 | 80 | 1015.2 |
| 20260505080021 | 13 | 118 | 1.6 | 4.8 | 0.00 | 0.00 | 0.00 | 80 | 1015.2 |
| 20260505075509 | 13 | 120 | 0.0 | 3.2 | 0.00 | 0.00 | 0.00 | 80 | 1015.2 |
| 20260505075008 | 13 | 101 | 0.0 | 3.2 | 0.00 | 0.00 | 0.00 | 80 | 1015.1 |
| 20260505074526 | 13 | 136 | 0.0 | 4.8 | 0.00 | 0.00 | 0.00 | 80 | 1015.1 |
| 20260505074010 | 13 | 148 | 0.0 | 4.8 | 0.00 | 0.00 | 0.00 | 80 | 1015.0 |
| 20260505073510 | 13 | 122 | 1.6 | 3.2 | 0.00 | 0.00 | 0.00 | 80 | 1015.0 |
| 20260505073008 | 13 | 138 | 1.6 | 3.2 | 0.00 | 0.00 | 0.00 | 79 | 1014.9 |
| 20260505072509 | 13 | 121 | 0.0 | 3.2 | 0.00 | 0.00 | 0.00 | 79 | 1014.9 |
| 20260505072004 | 13 | 131 | 0.0 | 3.2 | 0.00 | 0.00 | 0.00 | 79 | 1014.8 |
| 20260505071516 | 13 | 134 | 0.0 | 3.2 | 0.00 | 0.00 | 0.00 | 79 | 1014.8 |
| 20260505071007 | 13 | 130 | 1.6 | 3.2 | 0.00 | 0.00 | 0.00 | 79 | 1014.7 |
| 20260505070506 | 13 | 128 | 1.6 | 6.4 | 0.00 | 0.00 | 0.00 | 79 | 1014.7 |
| 20260505070022 | 13 | 133 | 1.6 | 6.4 | 0.00 | 0.00 | 0.00 | 79 | 1014.7 |
| 20260505065511 | 13 | 132 | 3.2 | 6.4 | 0.00 | 0.00 | 0.00 | 78 | 1014.7 |
| 20260505065009 | 14 | 109 | 1.6 | 3.2 | 0.00 | 0.00 | 0.00 | 78 | 1014.7 |
| 20260505064523 | 14 | 140 | 1.6 | 3.2 | 0.00 | 0.00 | 0.00 | 77 | 1014.6 |
| 20260505064009 | 14 | 92 | 0.0 | 3.2 | 0.00 | 0.00 | 0.00 | 77 | 1014.5 |
| 20260505063508 | 15 | 105 | 0.0 | 3.2 | 0.00 | 0.00 | 0.00 | 76 | 1014.4 |
| 20260505063028 | 15 | 101 | 0.0 | 3.2 | 0.00 | 0.00 | 0.00 | 75 | 1014.3 |
| 20260505062517 | 15 | 128 | 1.6 | 3.2 | 0.00 | 0.00 | 0.00 | 1014.2 | |
| 20260505062008 | 15 | 219 | 0.0 | 3.2 | 0.00 | 0.00 | 0.00 | 1014.1 | |
| 20260505061514 | 15 | 191 | 0.0 | 4.8 | 0.00 | 0.00 | 0.00 | 1014.1 | |
| 20260505061008 | 15 | 215 | 0.0 | 4.8 | 0.00 | 0.00 | 0.00 | 1014.0 | |
| 20260505060507 | 15 | 165 | 0.0 | 3.2 | 0.00 | 0.00 | 0.00 | 1013.9 | |
| 20260505060016 | 16 | 219 | 1.6 | 3.2 | 0.00 | 0.00 | 0.00 | 1014.0 | |
| 20260505055507 | 16 | 207 | 0.0 | 3.2 | 0.00 | 0.00 | 0.00 | 72 | 1013.9 |
| 20260505055009 | 16 | 196 | 0.0 | 3.2 | 0.00 | 0.00 | 0.00 | 72 | 1013.9 |
| 20260505054524 | 16 | 95 | 0.0 | 3.2 | 0.00 | 0.00 | 0.00 | 72 | 1013.9 |
| 20260505054011 | 16 | 336 | 0.0 | 4.8 | 0.00 | 0.00 | 0.00 | 72 | 1013.9 |
| 20260505053510 | 16 | 297 | 1.6 | 4.8 | 0.00 | 0.00 | 0.00 | 71 | 1013.8 |
| 20260505053028 | 16 | 9 | 0.0 | 6.4 | 0.00 | 0.00 | 0.00 | 71 | 1013.7 |
| 20260505052507 | 16 | 271 | 0.0 | 6.4 | 0.00 | 0.00 | 0.00 | 71 | 1013.7 |
| 20260505052013 | 16 | 5 | 0.0 | 4.8 | 0.00 | 0.00 | 0.00 | 71 | 1013.7 |
| 20260505051551 | 16 | 175 | 0.0 | 4.8 | 0.00 | 0.00 | 0.00 | 71 | 1013.6 |
| 20260505051014 | 17 | 317 | 0.0 | 3.2 | 0.00 | 0.00 | 0.00 | 71 | 1013.6 |
| 20260505050509 | 17 | 30 | 1.6 | 3.2 | 0.00 | 0.00 | 0.00 | 71 | 1013.5 |
| 20260505041528 | 18 | 119 | 0.0 | 3.2 | 0.00 | 0.00 | 0.00 | 69 | 1012.9 |
| 20260505041007 | 18 | 119 | 0.0 | 3.2 | 0.00 | 0.00 | 0.00 | 68 | 1012.9 |
| 20260505040510 | 18 | 153 | 0.0 | 3.2 | 0.00 | 0.00 | 0.00 | 68 | 1012.8 |
| 20260505040030 | 19 | 157 | 0.0 | 3.2 | 0.00 | 0.00 | 0.00 | 67 | 1012.7 |
| 20260505035510 | 19 | 148 | 0.0 | 3.2 | 0.00 | 0.00 | 0.00 | 66 | 1012.6 |
| 20260505035004 | 19 | 130 | 0.0 | 3.2 | 0.00 | 0.00 | 0.00 | 66 | 1012.4 |
| 20260505034524 | 19 | 129 | 1.6 | 4.8 | 0.00 | 0.00 | 0.00 | 66 | 1012.4 |
| 20260505034007 | 19 | 162 | 1.6 | 6.4 | 0.00 | 0.00 | 0.00 | 66 | 1012.3 |
| 20260505033508 | 20 | 135 | 1.6 | 6.4 | 0.00 | 0.00 | 0.00 | 66 | 1012.2 |
| 20260505033028 | 20 | 142 | 0.0 | 4.8 | 0.00 | 0.00 | 0.00 | 66 | 1012.2 |
| 20260505032508 | 20 | 160 | 1.6 | 4.8 | 0.00 | 0.00 | 0.00 | 66 | 1012.2 |
| 20260505032009 | 20 | 195 | 0.0 | 4.8 | 0.00 | 0.00 | 0.00 | 65 | 1012.1 |
| 20260505031525 | 20 | 235 | 1.6 | 4.8 | 0.00 | 0.00 | 0.00 | 64 | 1012.1 |
| 20260505031011 | 20 | 277 | 1.6 | 6.4 | 0.00 | 0.00 | 0.00 | 64 | 1012.1 |
| 20260505030508 | 20 | 221 | 3.2 | 6.4 | 0.00 | 0.00 | 0.00 | 63 | 1011.9 |
| 20260505030030 | 21 | 204 | 1.6 | 8.0 | 0.00 | 0.00 | 0.00 | 63 | 1011.8 |
| 20260505025514 | 21 | 220 | 3.2 | 8.0 | 0.00 | 0.00 | 0.00 | 63 | 1011.9 |
| 20260505025011 | 21 | 196 | 3.2 | 8.0 | 0.00 | 0.00 | 0.00 | 63 | 1011.8 |
| 20260505024529 | 21 | 179 | 3.2 | 9.7 | 0.00 | 0.00 | 0.00 | 63 | 1011.7 |
| 20260505024006 | 21 | 257 | 3.2 | 9.7 | 0.00 | 0.00 | 0.00 | 62 | 1011.7 |
| 20260505023508 | 21 | 200 | 1.6 | 8.0 | 0.00 | 0.00 | 0.00 | 62 | 1011.7 |
| 20260505023023 | 22 | 254 | 3.2 | 8.0 | 0.00 | 0.00 | 0.00 | 62 | 1011.7 |
| 20260505022509 | 22 | 173 | 1.6 | 8.0 | 0.00 | 0.00 | 0.00 | 62 | 1011.6 |
| 20260505022008 | 22 | 207 | 3.2 | 8.0 | 0.00 | 0.00 | 0.00 | 61 | 1011.6 |
| 20260505021526 | 22 | 153 | 4.8 | 8.0 | 0.00 | 0.00 | 0.00 | 61 | 1011.6 |
| 20260505021009 | 22 | 204 | 0.0 | 8.0 | 0.00 | 0.00 | 0.00 | 60 | 1011.5 |
| 20260505020511 | 22 | 155 | 4.8 | 9.7 | 0.00 | 0.00 | 0.00 | 60 | 1011.6 |
| 20260505020028 | 22 | 175 | 1.6 | 12.9 | 0.00 | 0.00 | 0.00 | 59 | 1011.7 |
| 20260505015513 | 22 | 122 | 3.2 | 14.5 | 0.00 | 0.00 | 0.00 | 59 | 1011.7 |
| 20260505015012 | 23 | 211 | 4.8 | 14.5 | 0.00 | 0.00 | 0.00 | 58 | 1011.6 |
| 20260505014530 | 23 | 213 | 1.6 | 8.0 | 0.00 | 0.00 | 0.00 | 59 | 1011.6 |
| 20260505014014 | 23 | 172 | 3.2 | 9.7 | 0.00 | 0.00 | 0.00 | 59 | 1011.6 |
| 20260505013508 | 22 | 153 | 3.2 | 9.7 | 0.00 | 0.00 | 0.00 | 59 | 1011.6 |
| 20260505013030 | 22 | 146 | 4.8 | 9.7 | 0.00 | 0.00 | 0.00 | 59 | 1011.6 |
| 20260505012508 | 23 | 244 | 4.8 | 8.0 | 0.00 | 0.00 | 0.00 | 58 | 1011.7 |
| 20260505012009 | 23 | 211 | 1.6 | 6.4 | 0.00 | 0.00 | 0.00 | 59 | 1011.7 |
| 20260505011526 | 23 | 204 | 1.6 | 9.7 | 0.00 | 0.00 | 0.00 | 59 | 1011.9 |
| 20260505011009 | 23 | 237 | 3.2 | 9.7 | 0.00 | 0.00 | 0.00 | 58 | 1011.9 |
| 20260505010512 | 23 | 151 | 1.6 | 8.0 | 0.00 | 0.00 | 0.00 | 58 | 1011.9 |
| 20260505010029 | 23 | 105 | 0.0 | 11.3 | 0.00 | 0.00 | 0.00 | 58 | 1011.9 |
| 20260505005509 | 23 | 189 | 6.4 | 11.3 | 0.00 | 0.00 | 0.00 | 58 | 1012.0 |
| 20260505005012 | 23 | 219 | 4.8 | 11.3 | 0.00 | 0.00 | 0.00 | 58 | 1012.0 |
| 20260505004526 | 23 | 250 | 3.2 | 11.3 | 0.00 | 0.00 | 0.00 | 58 | 1012.0 |
| 20260505004011 | 23 | 204 | 3.2 | 11.3 | 0.00 | 0.00 | 0.00 | 58 | 1012.0 |
| 20260505003518 | 23 | 188 | 3.2 | 8.0 | 0.00 | 0.00 | 0.00 | 57 | 1012.0 |
| 20260505003028 | 23 | 263 | 1.6 | 8.0 | 0.00 | 0.00 | 0.00 | 57 | 1012.0 |
| 20260505002509 | 23 | 146 | 1.6 | 9.7 | 0.00 | 0.00 | 0.00 | 57 | 1012.0 |
| 20260505002011 | 23 | 218 | 3.2 | 9.7 | 0.00 | 0.00 | 0.00 | 57 | 1012.1 |
| 20260505001524 | 23 | 202 | 3.2 | 9.7 | 0.00 | 0.00 | 0.00 | 57 | 1012.1 |
| 20260505001006 | 23 | 130 | 3.2 | 8.0 | 0.00 | 0.00 | 0.00 | 57 | 1012.1 |
| 20260505000508 | 23 | 191 | 1.6 | 9.7 | 0.00 | 0.00 | 0.00 | 57 | 1012.2 |
| 20260505000029 | 23 | 171 | 3.2 | 9.7 | 0.00 | 0.00 | 0.00 | 57 | 1012.2 |
| 20260504235508 | 23 | 227 | 1.6 | 11.3 | 0.00 | 0.00 | 0.00 | 57 | 1012.2 |
| 20260504235012 | 23 | 190 | 3.2 | 11.3 | 0.00 | 0.00 | 0.00 | 56 | 1012.3 |
| 20260504234532 | 23 | 221 | 1.6 | 9.7 | 0.00 | 0.00 | 0.00 | 56 | 1012.3 |
| 20260504234010 | 23 | 64 | 1.6 | 9.7 | 0.00 | 0.00 | 0.00 | 56 | 1012.3 |
| 20260504233511 | 23 | 151 | 4.8 | 11.3 | 0.00 | 0.00 | 0.00 | 57 | 1012.3 |
| 20260504233028 | 23 | 207 | 4.8 | 12.9 | 0.00 | 0.00 | 0.00 | 57 | 1012.4 |
| 20260504232509 | 23 | 211 | 1.6 | 12.9 | 0.00 | 0.00 | 0.00 | 57 | 1012.4 |
| 20260504232013 | 23 | 203 | 4.8 | 12.9 | 0.00 | 0.00 | 0.00 | 55 | 1012.4 |
| 20260504231520 | 24 | 186 | 3.2 | 8.0 | 0.00 | 0.00 | 0.00 | 55 | 1012.4 |
| 20260504231008 | 23 | 144 | 3.2 | 14.5 | 0.00 | 0.00 | 0.00 | 55 | 1012.4 |
| 20260504230507 | 23 | 158 | 4.8 | 14.5 | 0.00 | 0.00 | 0.00 | 56 | 1012.5 |
| 20260504230026 | 23 | 199 | 6.4 | 14.5 | 0.00 | 0.00 | 0.00 | 54 | 1012.6 |
| 20260504225514 | 23 | 24 | 1.6 | 14.5 | 0.00 | 0.00 | 0.00 | 56 | 1012.6 |
| 20260504225011 | 23 | 212 | 6.4 | 11.3 | 0.00 | 0.00 | 0.00 | 54 | 1012.7 |
| 20260504224509 | 24 | 212 | 0.0 | 6.4 | 0.00 | 0.00 | 0.00 | 54 | 1012.8 |
| 20260504224003 | 24 | 215 | 1.6 | 8.0 | 0.00 | 0.00 | 0.00 | 52 | 1012.9 |
| 20260504223504 | 23 | 18 | 3.2 | 8.0 | 0.00 | 0.00 | 0.00 | 53 | 1013.0 |
| 20260504223014 | 23 | 281 | 1.6 | 8.0 | 0.00 | 0.00 | 0.00 | 57 | 1013.0 |
| 20260504222506 | 23 | 122 | 3.2 | 11.3 | 0.00 | 0.00 | 0.00 | 56 | 1013.1 |
| 20260504222011 | 22 | 220 | 3.2 | 11.3 | 0.00 | 0.00 | 0.00 | 58 | 1013.2 |
| 20260504221520 | 22 | 207 | 4.8 | 9.7 | 0.00 | 0.00 | 0.00 | 56 | 1013.1 |
| 20260504221009 | 22 | 256 | 3.2 | 6.4 | 0.00 | 0.00 | 0.00 | 56 | 1013.3 |
| 20260504220509 | 22 | 347 | 1.6 | 14.5 | 0.00 | 0.00 | 0.00 | 55 | 1013.3 |
| 20260504220025 | 22 | 229 | 4.8 | 14.5 | 0.00 | 0.00 | 0.00 | 56 | 1013.4 |
| 20260504215509 | 22 | 97 | 3.2 | 9.7 | 0.00 | 0.00 | 0.00 | 56 | 1013.5 |
| 20260504215013 | 22 | 244 | 3.2 | 6.4 | 0.00 | 0.00 | 0.00 | 56 | 1013.5 |
| 20260504214526 | 22 | 232 | 1.6 | 8.0 | 0.00 | 0.00 | 0.00 | 56 | 1013.6 |
| 20260504214008 | 22 | 143 | 3.2 | 11.3 | 0.00 | 0.00 | 0.00 | 56 | 1013.7 |
| 20260504213506 | 22 | 37 | 0.0 | 11.3 | 0.00 | 0.00 | 0.00 | 58 | 1013.7 |
| 20260504213016 | 22 | 183 | 4.8 | 9.7 | 0.00 | 0.00 | 0.00 | 56 | 1013.8 |
| 20260504212505 | 21 | 57 | 3.2 | 9.7 | 0.00 | 0.00 | 0.00 | 60 | 1013.9 |
| 20260504212009 | 20 | 194 | 1.6 | 11.3 | 0.00 | 0.00 | 0.00 | 59 | 1013.9 |
| 20260504211516 | 21 | 178 | 4.8 | 12.9 | 0.00 | 0.00 | 0.00 | 59 | 1014.0 |
| 20260504211007 | 20 | 235 | 6.4 | 12.9 | 0.00 | 0.00 | 0.00 | 59 | 1014.0 |
| 20260504210510 | 21 | 120 | 1.6 | 4.8 | 0.00 | 0.00 | 0.00 | 59 | 1014.1 |
| 20260504210026 | 20 | 92 | 1.6 | 4.8 | 0.00 | 0.00 | 0.00 | 60 | 1014.1 |
| 20260504205512 | 20 | 103 | 1.6 | 8.0 | 0.00 | 0.00 | 0.00 | 61 | 1014.2 |
| 20260504205008 | 19 | 287 | 1.6 | 9.7 | 0.00 | 0.00 | 0.00 | 63 | 1014.3 |
| 20260504204530 | 19 | 234 | 1.6 | 9.7 | 0.00 | 0.00 | 0.00 | 63 | 1014.4 |
| 20260504204011 | 19 | 173 | 4.8 | 12.9 | 0.00 | 0.00 | 0.00 | 63 | 1014.4 |
| 20260504203513 | 19 | 173 | 6.4 | 12.9 | 0.00 | 0.00 | 0.00 | 62 | 1014.4 |
| 20260504203038 | 19 | 122 | 3.2 | 11.3 | 0.00 | 0.00 | 0.00 | 62 | 1014.5 |
| 20260504202507 | 20 | 152 | 1.6 | 9.7 | 0.00 | 0.00 | 0.00 | 63 | 1014.6 |
| 20260504202004 | 20 | 207 | 3.2 | 9.7 | 0.00 | 0.00 | 0.00 | 62 | 1014.6 |